Погода в Жерехове

Россия / Владимирская область     56°10′16″N   39°58′43″E
темп.,
°C
ветер,
м/с
пор.,
м/с
влажн.,
%
обл.,
%
осадки,
мм/ч
давл.,
гПа
погр.,
м
7 мая, пт
пт700:00+8зюз4984100 0.2 1007554
03:00+6юз4891100 0.2 1008316
06:00+6зюз4891100 0.0 1009406
09:00+8з4573100 0.0 1010767
12:00+12зюз584692 0.0 10102391
15:00+12зсз584543 0.0 10112009
18:00+12зюз35525 0.0 1012284
21:00+7ююз33645 0.0 101438
8 мая, сб
сб800:00+6ю4972100 0.0 1014156
03:00+6ююв41074100 0.0 1014186
06:00+7ююв61570100 0.0 1012407
09:00+10ююв81466100 0.0 10111063
12:00+12ююв91764100 0.0 10081694
15:00+10ююв91780100 2.7 10051419
18:00+9ююв81692100 4.3 10031062
21:00+11ю81496100 4.9 10021045
9 мая, вс
вс900:00+8ююз51196100 0.1 1003466
03:00+9ю4996100 0.3 1003550
06:00+6юз5893100 0.2 1005716
09:00+4сз61297100 1.1 1010748
12:00+6зсз6986100 0.1 10141169
15:00+8сз71074100 0.3 10161039
18:00+10ссз496684 0.1 10191485
21:00+5сз337818 0.1 102230
10 мая, пн
пн1000:00+3ссз35835 0.0 102467
03:00+2сз36854 0.0 102793
06:00+4с26815 0.0 1028141
09:00+10ссз33605 0.0 1029522
12:00+13ссз33455 0.0 10291297
15:00+14ссз334317 0.0 10291385
18:00+14ссв12555 0.0 1029835
21:00+9св01597 0.0 103010
11 мая, вт
вт1100:00+7ссз11645 0.0 103010
03:00+6сз117088 0.0 103110
06:00+8с007499 0.0 103214
09:00+13вюв116093 0.0 1032413
12:00+16вюв2254100 0.0 1031861
15:00+17всв2254100 0.0 10301037
18:00+17всв2267100 0.0 1030232
21:00+12вюв117626 0.0 102910